| time (UTC) | temp C | wind direction | speed KPH | gust KPH | rain 1hr cm | rain 24hr cm | rain mn cm | humidity % | barometer mb |
| 20260503200804 | 13 | 280 | 11.3 | 32.2 | 0.00 | 0.00 | 0.00 | 44 | 1015.1 |
| 20260503200307 | 13 | 287 | 11.3 | 24.1 | 0.00 | 0.00 | 0.00 | 44 | 1015.1 |
| 20260503195804 | 13 | 277 | 8.0 | 16.1 | 0.00 | 0.00 | 0.00 | 45 | 1015.2 |
| 20260503195305 | 13 | 263 | 4.8 | 12.9 | 0.00 | 0.00 | 0.00 | 44 | 1015.3 |
| 20260503194804 | 14 | 302 | 9.7 | 19.3 | 0.00 | 0.00 | 0.00 | 42 | 1015.4 |
| 20260503194304 | 13 | 292 | 8.0 | 19.3 | 0.00 | 0.00 | 0.00 | 43 | 1015.5 |
| 20260503193805 | 13 | 279 | 6.4 | 12.9 | 0.00 | 0.00 | 0.00 | 45 | 1015.6 |
| 20260503193304 | 13 | 289 | 4.8 | 19.3 | 0.00 | 0.00 | 0.00 | 46 | 1015.6 |
| 20260503192804 | 13 | 247 | 9.7 | 22.5 | 0.00 | 0.00 | 0.00 | 48 | 1015.7 |
| 20260503192305 | 13 | 278 | 8.0 | 14.5 | 0.00 | 0.00 | 0.00 | 47 | 1015.9 |
| 20260503191804 | 13 | 285 | 11.3 | 20.9 | 0.00 | 0.00 | 0.00 | 46 | 1016.0 |
| 20260503191304 | 13 | 275 | 11.3 | 24.1 | 0.00 | 0.00 | 0.00 | 44 | 1015.9 |
| 20260503190804 | 13 | 259 | 11.3 | 20.9 | 0.00 | 0.00 | 0.00 | 47 | 1016.0 |
| 20260503190304 | 13 | 248 | 8.0 | 22.5 | 0.00 | 0.00 | 0.00 | 52 | 1016.0 |
| 20260503184803 | 13 | 266 | 11.3 | 22.5 | 0.00 | 0.00 | 0.00 | 46 | 1016.3 |
| 20260503184304 | 13 | 278 | 9.7 | 20.9 | 0.00 | 0.00 | 0.00 | 47 | 1016.2 |
| 20260503183804 | 13 | 272 | 4.8 | 12.9 | 0.00 | 0.00 | 0.00 | 51 | 1016.4 |
| 20260503183304 | 13 | 272 | 9.7 | 20.9 | 0.00 | 0.00 | 0.00 | 46 | 1016.4 |
| 20260503182804 | 13 | 256 | 9.7 | 16.1 | 0.00 | 0.00 | 0.00 | 47 | 1016.5 |
| 20260503182305 | 13 | 272 | 9.7 | 16.1 | 0.00 | 0.00 | 0.00 | 47 | 1016.6 |
| 20260503181804 | 13 | 272 | 8.0 | 19.3 | 0.00 | 0.00 | 0.00 | 46 | 1016.6 |
| 20260503181304 | 13 | 261 | 8.0 | 19.3 | 0.00 | 0.00 | 0.00 | 49 | 1016.6 |
| 20260503180804 | 13 | 280 | 11.3 | 22.5 | 0.00 | 0.00 | 0.00 | 48 | 1016.7 |
| 20260503180304 | 13 | 280 | 11.3 | 24.1 | 0.00 | 0.00 | 0.00 | 48 | 1016.8 |
| 20260503175804 | 12 | 282 | 11.3 | 32.2 | 0.00 | 0.00 | 0.00 | 47 | 1016.9 |
| 20260503175305 | 13 | 283 | 9.7 | 22.5 | 0.00 | 0.00 | 0.00 | 49 | 1017.0 |
| 20260503174804 | 12 | 246 | 8.0 | 25.7 | 0.00 | 0.00 | 0.00 | 48 | 1016.9 |
| 20260503173804 | 12 | 230 | 8.0 | 19.3 | 0.00 | 0.00 | 0.00 | 49 | 1017.2 |
| 20260503173304 | 12 | 258 | 9.7 | 24.1 | 0.00 | 0.00 | 0.00 | 49 | 1017.1 |
| 20260503172805 | 12 | 260 | 9.7 | 19.3 | 0.00 | 0.00 | 0.00 | 52 | 1017.2 |
| 20260503172305 | 12 | 288 | 8.0 | 25.7 | 0.00 | 0.00 | 0.00 | 49 | 1017.1 |
| 20260503171304 | 11 | 258 | 6.4 | 19.3 | 0.00 | 0.00 | 0.00 | 48 | 1017.3 |
| 20260503170805 | 11 | 262 | 11.3 | 16.1 | 0.00 | 0.00 | 0.00 | 47 | 1017.3 |
| 20260503170304 | 11 | 33 | 3.2 | 14.5 | 0.00 | 0.00 | 0.00 | 50 | 1017.5 |
| 20260503150805 | 10 | 284 | 8.0 | 19.3 | 0.00 | 0.00 | 0.00 | 54 | 1018.5 |
| 20260503150304 | 9 | 288 | 9.7 | 16.1 | 0.00 | 0.00 | 0.00 | 54 | 1018.5 |
| 20260503140304 | 7 | 44 | 3.2 | 16.1 | 0.00 | 0.00 | 0.00 | 67 | 1018.9 |
| 20260503131304 | 6 | 265 | 4.8 | 12.9 | 0.00 | 0.08 | 0.00 | 77 | 1019.1 |
| 20260503130806 | 5 | 278 | 4.8 | 11.3 | 0.00 | 0.08 | 0.00 | 78 | 1019.1 |
| 20260503130304 | 5 | 272 | 1.6 | 9.7 | 0.00 | 0.08 | 0.00 | 81 | 1019.1 |
| 20260503090304 | -1 | 300 | 0.0 | 0.0 | 0.00 | 0.08 | 0.00 | 95 | 1017.7 |
| 20260503081304 | 0 | 300 | 0.0 | 0.0 | 0.00 | 0.10 | 0.00 | 93 | 1017.6 |
| 20260503080304 | 0 | 300 | 0.0 | 0.0 | 0.00 | 0.10 | 0.00 | 93 | 1017.7 |
| 20260503072305 | 0 | 300 | 0.0 | 0.0 | 0.00 | 0.10 | 0.00 | 92 | 1017.4 |
| 20260503071804 | 0 | 300 | 0.0 | 0.0 | 0.00 | 0.10 | 0.00 | 92 | 1017.4 |
| 20260503070804 | 0 | 300 | 0.0 | 0.0 | 0.00 | 0.10 | 0.00 | 91 | 1017.3 |
| 20260503070304 | 0 | 300 | 0.0 | 0.0 | 0.00 | 0.10 | 0.00 | 91 | 1017.4 |
| 20260503060304 | 1 | 300 | 0.0 | 0.0 | 0.00 | 0.10 | 0.00 | 91 | 1017.5 |
| 20260503054804 | 1 | 300 | 0.0 | 0.0 | 0.00 | 0.10 | 0.00 | 90 | 1017.6 |
| 20260503054304 | 1 | 300 | 0.0 | 0.0 | 0.00 | 0.10 | 0.00 | 90 | 1017.6 |
| 20260503052305 | 1 | 300 | 0.0 | 0.0 | 0.00 | 0.10 | 0.00 | 90 | 1017.7 |
| 20260503051806 | 1 | 300 | 0.0 | 0.0 | 0.00 | 0.10 | 0.00 | 90 | 1017.7 |
| 20260503051304 | 1 | 300 | 0.0 | 0.0 | 0.00 | 0.10 | 0.00 | 90 | 1017.8 |
| 20260503050806 | 1 | 300 | 0.0 | 0.0 | 0.00 | 0.10 | 0.00 | 90 | 1017.8 |
| 20260503050305 | 1 | 300 | 0.0 | 0.0 | 0.00 | 0.10 | 0.00 | 90 | 1017.8 |
| 20260503045804 | 1 | 300 | 0.0 | 0.0 | 0.00 | 0.10 | 0.00 | 90 | 1017.8 |
| 20260503045305 | 1 | 300 | 0.0 | 0.0 | 0.00 | 0.10 | 0.00 | 90 | 1017.8 |
| 20260503044804 | 1 | 300 | 0.0 | 0.0 | 0.00 | 0.10 | 0.00 | 90 | 1017.9 |
| 20260503044303 | 1 | 300 | 0.0 | 0.0 | 0.00 | 0.10 | 0.00 | 90 | 1017.8 |
| 20260503043304 | 1 | 300 | 0.0 | 0.0 | 0.00 | 0.10 | 0.00 | 89 | 1017.9 |
| 20260503042804 | 1 | 300 | 0.0 | 0.0 | 0.00 | 0.10 | 0.00 | 89 | 1018.0 |
| 20260503042305 | 1 | 300 | 0.0 | 0.0 | 0.00 | 0.10 | 0.00 | 89 | 1017.9 |
| 20260503041804 | 1 | 300 | 0.0 | 0.0 | 0.00 | 0.10 | 0.00 | 88 | 1018.0 |
| 20260503041304 | 1 | 300 | 0.0 | 0.0 | 0.00 | 0.10 | 0.00 | 88 | 1018.0 |
| 20260503040804 | 1 | 300 | 0.0 | 0.0 | 0.00 | 0.10 | 0.00 | 87 | 1018.0 |
| 20260503040304 | 1 | 300 | 0.0 | 0.0 | 0.00 | 0.10 | 0.00 | 87 | 1018.1 |
| 20260503035804 | 1 | 300 | 0.0 | 0.0 | 0.00 | 0.10 | 0.10 | 87 | 1018.0 |
| 20260503035305 | 1 | 300 | 0.0 | 0.0 | 0.00 | 0.10 | 0.10 | 87 | 1018.0 |
| 20260503034805 | 1 | 300 | 0.0 | 1.6 | 0.00 | 0.10 | 0.10 | 86 | 1018.1 |
| 20260503034305 | 1 | 300 | 0.0 | 0.0 | 0.00 | 0.10 | 0.10 | 85 | 1018.0 |
| 20260503033804 | 1 | 300 | 0.0 | 1.6 | 0.00 | 0.10 | 0.10 | 85 | 1018.0 |
| 20260503033304 | 2 | 300 | 0.0 | 1.6 | 0.00 | 0.10 | 0.10 | 85 | 1017.9 |
| 20260503032804 | 2 | 300 | 0.0 | 1.6 | 0.00 | 0.10 | 0.10 | 83 | 1017.8 |
| 20260503032304 | 2 | 300 | 0.0 | 0.0 | 0.00 | 0.10 | 0.10 | 82 | 1017.9 |
| 20260503031804 | 2 | 300 | 0.0 | 0.0 | 0.00 | 0.10 | 0.10 | 82 | 1017.9 |
| 20260503031304 | 2 | 300 | 0.0 | 1.6 | 0.00 | 0.10 | 0.10 | 81 | 1017.9 |
| 20260503030804 | 2 | 300 | 0.0 | 1.6 | 0.00 | 0.10 | 0.10 | 81 | 1017.9 |
| 20260503030305 | 2 | 300 | 0.0 | 1.6 | 0.00 | 0.10 | 0.10 | 81 | 1018.0 |
| 20260503025804 | 2 | 6 | 0.0 | 0.0 | 0.00 | 0.10 | 0.10 | 81 | 1018.0 |
| 20260503025305 | 2 | 6 | 0.0 | 0.0 | 0.00 | 0.10 | 0.10 | 81 | 1018.1 |
| 20260503024806 | 2 | 6 | 0.0 | 1.6 | 0.00 | 0.10 | 0.10 | 81 | 1018.1 |
| 20260503024304 | 2 | 6 | 0.0 | 0.0 | 0.00 | 0.10 | 0.10 | 81 | 1018.1 |
| 20260503023804 | 2 | 6 | 0.0 | 1.6 | 0.00 | 0.10 | 0.10 | 82 | 1018.2 |
| 20260503023304 | 2 | 6 | 0.0 | 0.0 | 0.00 | 0.10 | 0.10 | 82 | 1018.2 |
| 20260503022804 | 2 | 6 | 0.0 | 0.0 | 0.00 | 0.10 | 0.10 | 83 | 1018.2 |
| 20260503021804 | 2 | 6 | 0.0 | 0.0 | 0.00 | 0.10 | 0.10 | 83 | 1018.2 |
| 20260503020804 | 2 | 6 | 0.0 | 1.6 | 0.00 | 0.10 | 0.10 | 84 | 1018.2 |
| 20260503020304 | 2 | 6 | 0.0 | 1.6 | 0.00 | 0.10 | 0.10 | 85 | 1018.2 |
| 20260503015804 | 2 | 6 | 0.0 | 0.0 | 0.00 | 0.10 | 0.10 | 85 | 1018.1 |
| 20260503014805 | 2 | 6 | 0.0 | 0.0 | 0.00 | 0.10 | 0.10 | 84 | 1018.2 |
| 20260503014304 | 2 | 6 | 0.0 | 0.0 | 0.00 | 0.10 | 0.10 | 84 | 1018.2 |
| 20260503013804 | 3 | 6 | 0.0 | 0.0 | 0.00 | 0.10 | 0.10 | 84 | 1018.2 |
| 20260503013304 | 3 | 6 | 0.0 | 1.6 | 0.00 | 0.10 | 0.10 | 83 | 1018.1 |
| 20260503012805 | 3 | 6 | 0.0 | 0.0 | 0.00 | 0.10 | 0.10 | 82 | 1018.1 |
| 20260503012305 | 3 | 6 | 0.0 | 0.0 | 0.00 | 0.10 | 0.10 | 82 | 1018.1 |
| 20260503011304 | 3 | 6 | 0.0 | 0.0 | 0.00 | 0.10 | 0.10 | 79 | 1018.1 |
| 20260503010804 | 3 | 6 | 0.0 | 1.6 | 0.00 | 0.10 | 0.10 | 79 | 1018.0 |
| 20260503010304 | 3 | 13 | 0.0 | 1.6 | 0.00 | 0.10 | 0.10 | 79 | 1018.0 |
| 20260503005305 | 3 | 13 | 0.0 | 1.6 | 0.00 | 0.10 | 0.10 | 78 | 1017.9 |
| 20260503002804 | 4 | 23 | 1.6 | 4.8 | 0.00 | 0.10 | 0.10 | 76 | 1017.6 |
| 20260503002305 | 4 | 350 | 3.2 | 11.3 | 0.00 | 0.10 | 0.10 | 76 | 1017.6 |
| 20260503001804 | 4 | 343 | 1.6 | 11.3 | 0.00 | 0.10 | 0.10 | 75 | 1017.6 |
| 20260503001305 | 4 | 21 | 1.6 | 4.8 | 0.00 | 0.10 | 0.10 | 75 | 1017.6 |
| 20260503000804 | 4 | 285 | 0.0 | 3.2 | 0.00 | 0.10 | 0.10 | 74 | 1017.6 |
| 20260503000304 | 4 | 342 | 1.6 | 4.8 | 0.00 | 0.10 | 0.10 | 74 | 1017.5 |
| 20260502235804 | 5 | 5 | 1.6 | 1.6 | 0.00 | 0.10 | 0.10 | 74 | 1017.5 |
| 20260502235305 | 5 | 23 | 1.6 | 4.8 | 0.00 | 0.10 | 0.10 | 74 | 1017.4 |
| 20260502234304 | 5 | 336 | 0.0 | 3.2 | 0.00 | 0.10 | 0.10 | 75 | 1017.4 |
| 20260502233804 | 5 | 331 | 1.6 | 3.2 | 0.00 | 0.10 | 0.10 | 74 | 1017.3 |
| 20260502233304 | 5 | 333 | 0.0 | 8.0 | 0.00 | 0.13 | 0.10 | 73 | 1017.2 |
| 20260502232804 | 5 | 354 | 1.6 | 4.8 | 0.00 | 0.13 | 0.10 | 72 | 1017.3 |
| 20260502232305 | 5 | 297 | 0.0 | 3.2 | 0.00 | 0.15 | 0.10 | 73 | 1017.3 |
| 20260502231804 | 5 | 305 | 1.6 | 4.8 | 0.00 | 0.15 | 0.10 | 71 | 1017.3 |
| 20260502231304 | 5 | 321 | 3.2 | 8.0 | 0.00 | 0.18 | 0.10 | 73 | 1017.3 |
| 20260502230804 | 5 | 344 | 3.2 | 4.8 | 0.00 | 0.18 | 0.10 | 74 | 1017.3 |
| 20260502230305 | 5 | 308 | 0.0 | 1.6 | 0.00 | 0.20 | 0.10 | 75 | 1017.3 |
| 20260502225304 | 5 | 340 | 0.0 | 4.8 | 0.00 | 0.25 | 0.10 | 74 | 1017.3 |
| 20260502224803 | 5 | 12 | 1.6 | 8.0 | 0.00 | 0.28 | 0.10 | 75 | 1017.2 |
| 20260502223804 | 5 | 12 | 0.0 | 1.6 | 0.00 | 0.30 | 0.10 | 74 | 1017.3 |
| 20260502221804 | 5 | 47 | 3.2 | 9.7 | 0.00 | 0.30 | 0.10 | 73 | 1017.2 |
| 20260502221304 | 5 | 321 | 1.6 | 4.8 | 0.00 | 0.30 | 0.10 | 73 | 1017.2 |
| 20260502220804 | 5 | 325 | 1.6 | 4.8 | 0.00 | 0.30 | 0.10 | 73 | 1017.2 |
| 20260502220305 | 5 | 318 | 1.6 | 4.8 | 0.00 | 0.30 | 0.10 | 71 | 1017.2 |
| 20260502215804 | 5 | 333 | 1.6 | 4.8 | 0.00 | 0.30 | 0.10 | 71 | 1017.1 |
| 20260502214803 | 6 | 328 | 1.6 | 9.7 | 0.00 | 0.30 | 0.10 | 70 | 1017.1 |
| 20260502214304 | 6 | 351 | 1.6 | 3.2 | 0.00 | 0.30 | 0.10 | 72 | 1017.0 |
| 20260502213804 | 5 | 303 | 0.0 | 4.8 | 0.00 | 0.30 | 0.10 | 72 | 1017.1 |
| 20260502212804 | 5 | 351 | 4.8 | 16.1 | 0.00 | 0.30 | 0.10 | 70 | 1017.0 |
| 20260502212305 | 5 | 349 | 4.8 | 14.5 | 0.00 | 0.30 | 0.10 | 71 | 1016.9 |
| 20260502211304 | 5 | 342 | 4.8 | 11.3 | 0.00 | 0.30 | 0.10 | 74 | 1016.9 |
| 20260502210804 | 6 | 330 | 3.2 | 8.0 | 0.00 | 0.30 | 0.10 | 74 | 1016.9 |
| 20260502210304 | 6 | 3 | 1.6 | 9.7 | 0.00 | 0.30 | 0.10 | 75 | 1016.9 |
| 20260502205804 | 6 | 341 | 1.6 | 14.5 | 0.00 | 0.30 | 0.10 | 73 | 1016.9 |
| 20260502204304 | 6 | 75 | 3.2 | 12.9 | 0.00 | 0.33 | 0.10 | 71 | 1016.9 |
| 20260502203804 | 6 | 98 | 3.2 | 12.9 | 0.00 | 0.33 | 0.10 | 70 | 1016.9 |
| 20260502202804 | 7 | 52 | 3.2 | 11.3 | 0.00 | 0.33 | 0.10 | 68 | 1016.9 |
| 20260502202305 | 6 | 61 | 4.8 | 14.5 | 0.00 | 0.33 | 0.10 | 71 | 1016.9 |